N7TA KDPA-KDVT

Flight info

Callsign N7TA
Flight time 2h 55m
Altitude 43000
Route OBENE3 ELYNA LAA INW DSERT2
Aircraft C750/M-SBDE3FGHRWXY/S

Departure

Time 2026-04-20 18:01
Airport Dupage Airport (KDPA)

Arrival

Time 2026-04-20 20:56
Airport Phoenix Deer Valley Airport (KDVT)
Time Latitude Longitude Altitude Speed Heading
2026-04-20 17:50 41.90551 -88.25478 757 ft 0 kts 324°
2026-04-20 17:53 41.90561 -88.25473 756 ft 3 kts 25°
2026-04-20 17:53 41.90600 -88.25448 757 ft 9 kts 40°
2026-04-20 17:53 41.90638 -88.25371 757 ft 10 kts 63°
2026-04-20 17:54 41.90662 -88.25295 757 ft 8 kts 67°
2026-04-20 17:54 41.90677 -88.25210 760 ft 9 kts 87°
2026-04-20 17:54 41.90696 -88.25129 761 ft 11 kts 21°
2026-04-20 17:54 41.90770 -88.25127 762 ft 11 kts 360°
2026-04-20 17:55 41.90848 -88.25127 764 ft 12 kts 360°
2026-04-20 17:55 41.90945 -88.25127 764 ft 16 kts 360°
2026-04-20 17:55 41.91057 -88.25127 762 ft 16 kts 360°
2026-04-20 17:55 41.91162 -88.25117 762 ft 14 kts
2026-04-20 17:56 41.91253 -88.25101 762 ft 13 kts
2026-04-20 17:56 41.91342 -88.25088 756 ft 10 kts
2026-04-20 17:56 41.91413 -88.25078 755 ft 9 kts
2026-04-20 17:56 41.91436 -88.25033 759 ft 7 kts 81°
2026-04-20 17:57 41.91431 -88.24950 759 ft 10 kts 96°
2026-04-20 17:57 41.91423 -88.24847 759 ft 10 kts 96°
2026-04-20 17:57 41.91420 -88.24812 759 ft 0 kts 96°
2026-04-20 17:59 41.91420 -88.24808 759 ft 3 kts 95°
2026-04-20 17:59 41.91416 -88.24751 757 ft 8 kts 95°
2026-04-20 17:59 41.91405 -88.24688 759 ft 4 kts 160°
2026-04-20 17:59 41.91391 -88.24691 758 ft 0 kts 194°
2026-04-20 18:00 41.91287 -88.24725 759 ft 52 kts 194°
2026-04-20 18:00 41.90603 -88.24956 760 ft 140 kts 194°
2026-04-20 18:00 41.89589 -88.25315 1067 ft 157 kts 194°
2026-04-20 18:00 41.88491 -88.25647 1256 ft 165 kts 188°
2026-04-20 18:01 41.87332 -88.25845 1913 ft 163 kts 186°
2026-04-20 18:01 41.86250 -88.26068 2757 ft 156 kts 190°
2026-04-20 18:01 41.85138 -88.26360 3191 ft 174 kts 191°
2026-04-20 18:01 41.83853 -88.26708 3498 ft 204 kts 191°
2026-04-20 18:02 41.82394 -88.27108 3920 ft 229 kts 192°
2026-04-20 18:02 41.80977 -88.28275 4315 ft 254 kts 230°
2026-04-20 18:02 41.80344 -88.30445 5411 ft 254 kts 259°
2026-04-20 18:02 41.80396 -88.32831 6322 ft 254 kts 276°
2026-04-20 18:03 41.80587 -88.35180 7286 ft 256 kts 276°
2026-04-20 18:03 41.80682 -88.37568 8275 ft 257 kts 274°
2026-04-20 18:03 41.80745 -88.39959 9269 ft 256 kts 276°
2026-04-20 18:03 41.80835 -88.42362 9990 ft 260 kts 277°
2026-04-20 18:04 41.80939 -88.44841 10315 ft 278 kts 277°
2026-04-20 18:04 41.81048 -88.47567 10319 ft 307 kts 276°
2026-04-20 18:04 41.81117 -88.49512 10436 ft 320 kts 276°
2026-04-20 18:04 41.81217 -88.52484 11177 ft 319 kts 276°
2026-04-20 18:05 41.81440 -88.58468 12520 ft 323 kts 276°
2026-04-20 18:05 41.81550 -88.61484 13194 ft 326 kts 276°
2026-04-20 18:05 41.81658 -88.64533 13862 ft 329 kts 277°
2026-04-20 18:06 41.81767 -88.67608 14459 ft 332 kts 277°
2026-04-20 18:06 41.81878 -88.70706 15022 ft 334 kts 277°
2026-04-20 18:06 41.81987 -88.73825 15595 ft 336 kts 277°
2026-04-20 18:06 41.82097 -88.76965 16207 ft 338 kts 277°
2026-04-20 18:07 41.82207 -88.80131 16837 ft 341 kts 277°
2026-04-20 18:07 41.82317 -88.83324 17490 ft 344 kts 278°
2026-04-20 18:07 41.82426 -88.86549 18100 ft 347 kts 278°
2026-04-20 18:07 41.82536 -88.89798 18708 ft 350 kts 278°
2026-04-20 18:08 41.82646 -88.93072 19269 ft 353 kts 278°
2026-04-20 18:08 41.82754 -88.96333 19838 ft 355 kts 278°
2026-04-20 18:08 41.82864 -88.99654 20427 ft 358 kts 278°
2026-04-20 18:08 41.82973 -89.02997 21019 ft 361 kts 278°
2026-04-20 18:09 41.83083 -89.06375 21590 ft 363 kts 278°
2026-04-20 18:09 41.83192 -89.09774 22158 ft 366 kts 278°
2026-04-20 18:09 41.83301 -89.13200 22721 ft 369 kts 278°
2026-04-20 18:09 41.83409 -89.16658 23304 ft 372 kts 279°
2026-04-20 18:10 41.83518 -89.20139 23861 ft 375 kts 279°
2026-04-20 18:10 41.83626 -89.23648 24311 ft 378 kts 279°
2026-04-20 18:10 41.83734 -89.27185 24756 ft 381 kts 279°
2026-04-20 18:10 41.83842 -89.30745 25222 ft 383 kts 279°
2026-04-20 18:11 41.83949 -89.34333 25690 ft 386 kts 279°
2026-04-20 18:11 41.84056 -89.37935 26155 ft 388 kts 279°
2026-04-20 18:11 41.84163 -89.41569 26615 ft 391 kts 279°
2026-04-20 18:11 41.84268 -89.45219 27088 ft 393 kts 279°
2026-04-20 18:12 41.84374 -89.48902 27558 ft 396 kts 279°
2026-04-20 18:12 41.84479 -89.52606 28021 ft 399 kts 279°
2026-04-20 18:12 41.84582 -89.56289 28496 ft 402 kts 279°
2026-04-20 18:12 41.84686 -89.60048 28972 ft 404 kts 279°
2026-04-20 18:13 41.84788 -89.63829 29434 ft 407 kts 279°
2026-04-20 18:13 41.84695 -89.67675 29874 ft 418 kts 272°
2026-04-20 18:13 41.84258 -89.71567 30340 ft 427 kts 266°
2026-04-20 18:13 41.83466 -89.75458 30736 ft 438 kts 260°
2026-04-20 18:14 41.82305 -89.79283 31125 ft 449 kts 253°
2026-04-20 18:14 41.80894 -89.83036 31579 ft 450 kts 252°
2026-04-20 18:14 41.79495 -89.86770 32208 ft 446 kts 252°
2026-04-20 18:14 41.78118 -89.90489 32786 ft 444 kts 252°
2026-04-20 18:15 41.76736 -89.94191 33345 ft 443 kts 252°
2026-04-20 18:15 41.75350 -89.97866 33939 ft 441 kts 252°
2026-04-20 18:15 41.73972 -90.01527 34443 ft 440 kts 252°
2026-04-20 18:15 41.72603 -90.05183 34916 ft 439 kts 252°
2026-04-20 18:16 41.71230 -90.08838 35390 ft 438 kts 252°
2026-04-20 18:16 41.69856 -90.12475 35860 ft 437 kts 251°
2026-04-20 18:16 41.68487 -90.16099 36341 ft 436 kts 251°
2026-04-20 18:16 41.67120 -90.19721 36824 ft 435 kts 251°
2026-04-20 18:17 41.65755 -90.23332 37306 ft 435 kts 251°
2026-04-20 18:17 41.64390 -90.26934 37800 ft 434 kts 251°
2026-04-20 18:17 41.63027 -90.30524 38286 ft 433 kts 250°
2026-04-20 18:17 41.61666 -90.34109 38768 ft 432 kts 250°
2026-04-20 18:18 41.60306 -90.37688 39193 ft 431 kts 250°
2026-04-20 18:18 41.58944 -90.41269 39507 ft 431 kts 250°
2026-04-20 18:18 41.57600 -90.44795 39835 ft 432 kts 250°
2026-04-20 18:18 41.56237 -90.48366 40163 ft 432 kts 250°
2026-04-20 18:19 41.54869 -90.51947 40467 ft 433 kts 250°
2026-04-20 18:19 41.53499 -90.55530 40791 ft 433 kts 250°
2026-04-20 18:19 41.52125 -90.59115 41120 ft 434 kts 250°
2026-04-20 18:19 41.50751 -90.62699 41457 ft 434 kts 250°
2026-04-20 18:20 41.49374 -90.66284 41782 ft 434 kts 250°
2026-04-20 18:20 41.47997 -90.69866 42118 ft 434 kts 250°
2026-04-20 18:20 41.46614 -90.73460 42450 ft 435 kts 250°
2026-04-20 18:20 41.45230 -90.77052 42741 ft 435 kts 249°
2026-04-20 18:21 41.43848 -90.80633 43108 ft 434 kts 249°
2026-04-20 18:21 41.42465 -90.84211 43344 ft 437 kts 249°
2026-04-20 18:21 41.39652 -90.91493 43336 ft 452 kts 249°
2026-04-20 18:22 41.36724 -90.99027 43341 ft 464 kts 249°
2026-04-20 18:22 41.33713 -91.06775 43327 ft 476 kts 249°
2026-04-20 18:23 41.30649 -91.14615 43302 ft 478 kts 248°
2026-04-20 18:23 41.27587 -91.22447 43331 ft 477 kts 249°
2026-04-20 18:24 41.24515 -91.30280 43330 ft 478 kts 248°
2026-04-20 18:24 41.21436 -91.38111 43308 ft 478 kts 248°
2026-04-20 18:25 41.18353 -91.45929 43298 ft 478 kts 248°
2026-04-20 18:25 41.15285 -91.53689 43279 ft 478 kts 248°
2026-04-20 18:26 41.12177 -91.61530 43295 ft 477 kts 248°
2026-04-20 18:26 41.09089 -91.69300 43297 ft 476 kts 248°
2026-04-20 18:27 41.05996 -91.77064 43296 ft 476 kts 248°
2026-04-20 18:27 41.02914 -91.84777 43313 ft 476 kts 248°
2026-04-20 18:28 40.99813 -91.92520 43271 ft 475 kts 248°
2026-04-20 18:28 40.96724 -92.00209 43280 ft 472 kts 248°
2026-04-20 18:29 40.93632 -92.07892 43282 ft 473 kts 248°
2026-04-20 18:29 40.90525 -92.15586 43283 ft 473 kts 248°
2026-04-20 18:30 40.87422 -92.23253 43293 ft 472 kts 248°
2026-04-20 18:30 40.84337 -92.30857 43278 ft 471 kts 248°
2026-04-20 18:31 40.81249 -92.38447 43287 ft 469 kts 248°
2026-04-20 18:31 40.78155 -92.46035 43283 ft 469 kts 248°
2026-04-20 18:32 40.75058 -92.53609 43287 ft 469 kts 248°
2026-04-20 18:32 40.71954 -92.61184 43276 ft 469 kts 247°
2026-04-20 18:33 40.68843 -92.68750 43279 ft 468 kts 247°
2026-04-20 18:33 40.65925 -92.76367 43266 ft 465 kts 249°
2026-04-20 18:34 40.63032 -92.84006 43262 ft 466 kts 249°
2026-04-20 18:34 40.60132 -92.91638 43260 ft 466 kts 249°
2026-04-20 18:35 40.57251 -92.99213 43262 ft 466 kts 249°
2026-04-20 18:35 40.54340 -93.06834 43244 ft 465 kts 249°
2026-04-20 18:36 40.51439 -93.14420 43263 ft 464 kts 249°
2026-04-20 18:36 40.48530 -93.22001 43255 ft 464 kts 249°
2026-04-20 18:37 40.45630 -93.29577 43240 ft 463 kts 250°
2026-04-20 18:37 40.43664 -93.37497 43248 ft 454 kts 261°
2026-04-20 18:38 40.42098 -93.45543 43241 ft 455 kts 260°
2026-04-20 18:38 40.40544 -93.53516 43241 ft 456 kts 260°
2026-04-20 18:39 40.38970 -93.61574 43238 ft 455 kts 260°
2026-04-20 18:39 40.37388 -93.69618 43237 ft 455 kts 260°
2026-04-20 18:40 40.35804 -93.77660 43235 ft 455 kts 260°
2026-04-20 18:40 40.34212 -93.85692 43225 ft 454 kts 259°
2026-04-20 18:41 40.32629 -93.93665 43223 ft 454 kts 259°
2026-04-20 18:41 40.31027 -94.01689 43218 ft 454 kts 259°
2026-04-20 18:42 40.29420 -94.09710 43216 ft 455 kts 259°
2026-04-20 18:42 40.27809 -94.17720 43207 ft 454 kts 259°
2026-04-20 18:43 40.26195 -94.25718 43209 ft 454 kts 259°
2026-04-20 18:43 40.24575 -94.33707 43200 ft 454 kts 259°
2026-04-20 18:44 40.22960 -94.41644 43196 ft 454 kts 259°
2026-04-20 18:44 40.21331 -94.49621 43189 ft 454 kts 259°
2026-04-20 18:45 40.19696 -94.57597 43153 ft 454 kts 259°
2026-04-20 18:45 40.18062 -94.65530 43175 ft 451 kts 259°
2026-04-20 18:46 40.16426 -94.73455 43158 ft 452 kts 259°
2026-04-20 18:46 40.14783 -94.81371 43168 ft 449 kts 259°
2026-04-20 18:47 40.13145 -94.89248 43163 ft 449 kts 259°
2026-04-20 18:47 40.11507 -94.97082 43153 ft 449 kts 258°
2026-04-20 18:48 40.09863 -95.04921 43156 ft 448 kts 258°
2026-04-20 18:48 40.08210 -95.12779 43158 ft 448 kts 258°
2026-04-20 18:49 40.06551 -95.20627 43153 ft 448 kts 258°
2026-04-20 18:49 40.04890 -95.28465 43152 ft 448 kts 258°
2026-04-20 18:50 40.03233 -95.36249 43146 ft 446 kts 258°
2026-04-20 18:50 40.01567 -95.44048 43142 ft 446 kts 258°
2026-04-20 18:51 40.00177 -95.50533 43137 ft 447 kts 258°
2026-04-20 18:51 39.98498 -95.58342 43138 ft 446 kts 258°
2026-04-20 18:52 39.96816 -95.66137 43132 ft 446 kts 258°
2026-04-20 18:52 39.95130 -95.73921 43137 ft 445 kts 258°
2026-04-20 18:53 39.93445 -95.81679 43129 ft 445 kts 258°
2026-04-20 18:53 39.91754 -95.89431 43127 ft 445 kts 258°
2026-04-20 18:54 39.90064 -95.97151 43122 ft 445 kts 258°
2026-04-20 18:54 39.88362 -96.04900 43121 ft 445 kts 258°
2026-04-20 18:55 39.86655 -96.12640 43102 ft 444 kts 258°
2026-04-20 18:55 39.84944 -96.20375 43120 ft 444 kts 258°
2026-04-20 18:56 39.83231 -96.28095 43119 ft 444 kts 258°
2026-04-20 18:56 39.81511 -96.35815 43129 ft 444 kts 258°
2026-04-20 18:57 39.79796 -96.43490 43120 ft 444 kts 258°
2026-04-20 18:57 39.78066 -96.51198 43114 ft 444 kts 257°
2026-04-20 18:58 39.76332 -96.58903 43123 ft 444 kts 257°
2026-04-20 18:58 39.74593 -96.66603 43123 ft 444 kts 257°
2026-04-20 18:59 39.72849 -96.74299 43120 ft 444 kts 257°
2026-04-20 18:59 39.71098 -96.82003 43118 ft 446 kts 257°
2026-04-20 19:00 39.69336 -96.89719 43115 ft 445 kts 257°
2026-04-20 19:00 39.67583 -96.97379 43109 ft 445 kts 257°
2026-04-20 19:01 39.65813 -97.05081 43105 ft 445 kts 257°
2026-04-20 19:01 39.64036 -97.12792 43106 ft 445 kts 257°
2026-04-20 19:02 39.62255 -97.20490 43102 ft 445 kts 257°
2026-04-20 19:02 39.60470 -97.28187 43102 ft 445 kts 257°
2026-04-20 19:03 39.58680 -97.35869 43100 ft 445 kts 257°
2026-04-20 19:03 39.56885 -97.43557 43098 ft 445 kts 257°
2026-04-20 19:04 39.55100 -97.51169 43091 ft 444 kts 256°
2026-04-20 19:04 39.53302 -97.58819 43083 ft 444 kts 256°
2026-04-20 19:05 39.51495 -97.66475 43090 ft 444 kts 256°
2026-04-20 19:05 39.49682 -97.74133 43089 ft 444 kts 256°
2026-04-20 19:06 39.47865 -97.81782 43089 ft 444 kts 256°
2026-04-20 19:06 39.46054 -97.89382 43089 ft 444 kts 256°
2026-04-20 19:07 39.44227 -97.97023 43060 ft 444 kts 256°
2026-04-20 19:07 39.42394 -98.04669 43084 ft 445 kts 256°
2026-04-20 19:08 39.39634 -98.16128 43083 ft 444 kts 256°
2026-04-20 19:09 39.37802 -98.23703 43084 ft 444 kts 256°
2026-04-20 19:09 39.35952 -98.31331 43081 ft 445 kts 256°
2026-04-20 19:10 39.34098 -98.38949 43067 ft 445 kts 255°
2026-04-20 19:10 39.32237 -98.46573 43066 ft 445 kts 255°
2026-04-20 19:11 39.30372 -98.54186 43063 ft 445 kts 255°
2026-04-20 19:11 39.28500 -98.61805 43064 ft 445 kts 255°
2026-04-20 19:12 39.26623 -98.69418 43055 ft 445 kts 255°
2026-04-20 19:12 39.24751 -98.76993 43041 ft 445 kts 255°
2026-04-20 19:13 39.22866 -98.84590 43055 ft 445 kts 255°
2026-04-20 19:13 39.20974 -98.92195 43052 ft 444 kts 255°
2026-04-20 19:14 39.19080 -98.99779 43048 ft 444 kts 255°
2026-04-20 19:14 39.17182 -99.07361 43045 ft 444 kts 255°
2026-04-20 19:15 39.15288 -99.14903 43046 ft 446 kts 254°
2026-04-20 19:15 39.13372 -99.22504 43049 ft 445 kts 254°
2026-04-20 19:16 39.11454 -99.30094 43061 ft 446 kts 254°
2026-04-20 19:16 39.09530 -99.37682 43046 ft 445 kts 254°
2026-04-20 19:17 39.07602 -99.45262 43045 ft 446 kts 254°
2026-04-20 19:17 39.05669 -99.52840 43056 ft 446 kts 254°
2026-04-20 19:18 39.03728 -99.60424 43043 ft 446 kts 254°
2026-04-20 19:18 39.01794 -99.67959 43045 ft 446 kts 254°
2026-04-20 19:19 38.99845 -99.75531 43036 ft 446 kts 253°
2026-04-20 19:19 38.97889 -99.83102 43045 ft 446 kts 253°
2026-04-20 19:20 38.95927 -99.90679 43027 ft 447 kts 253°
2026-04-20 19:20 38.93959 -99.98252 43023 ft 447 kts 253°
2026-04-20 19:21 38.91987 -100.05818 43023 ft 447 kts 253°
2026-04-20 19:21 38.90007 -100.13394 43029 ft 448 kts 253°
2026-04-20 19:22 38.88018 -100.20976 43020 ft 448 kts 253°
2026-04-20 19:22 38.86023 -100.28562 43013 ft 449 kts 253°
2026-04-20 19:23 38.84035 -100.36097 43017 ft 448 kts 253°
2026-04-20 19:23 38.82030 -100.43678 43011 ft 448 kts 253°
2026-04-20 19:24 38.80021 -100.51246 43017 ft 449 kts 253°
2026-04-20 19:24 38.78005 -100.58821 43007 ft 449 kts 253°
2026-04-20 19:25 38.75979 -100.66407 43011 ft 449 kts 253°
2026-04-20 19:25 38.73947 -100.73999 43004 ft 452 kts 253°
2026-04-20 19:26 38.71905 -100.81601 43005 ft 451 kts 252°
2026-04-20 19:26 38.69873 -100.89143 43004 ft 451 kts 252°
2026-04-20 19:27 38.67822 -100.96736 43004 ft 451 kts 252°
2026-04-20 19:27 38.65765 -101.04325 43039 ft 451 kts 252°
2026-04-20 19:28 38.63706 -101.11903 43032 ft 451 kts 252°
2026-04-20 19:28 38.61638 -101.19489 43022 ft 451 kts 252°
2026-04-20 19:29 38.59567 -101.27064 43000 ft 451 kts 252°
2026-04-20 19:29 38.57502 -101.34597 42997 ft 453 kts 252°
2026-04-20 19:30 38.55414 -101.42189 43008 ft 454 kts 252°
2026-04-20 19:30 38.53316 -101.49794 42994 ft 453 kts 252°
2026-04-20 19:31 38.51218 -101.57383 42994 ft 453 kts 252°
2026-04-20 19:31 38.49111 -101.64975 42993 ft 454 kts 252°
2026-04-20 19:32 38.46999 -101.72568 42991 ft 455 kts 252°
2026-04-20 19:32 38.44878 -101.80166 42989 ft 454 kts 252°
2026-04-20 19:33 38.42764 -101.87725 42991 ft 454 kts 251°
2026-04-20 19:33 38.40632 -101.95320 42989 ft 454 kts 251°
2026-04-20 19:34 38.38497 -102.02904 42990 ft 454 kts 251°
2026-04-20 19:34 38.36355 -102.10495 42986 ft 456 kts 251°
2026-04-20 19:35 38.34204 -102.18093 42992 ft 455 kts 251°
2026-04-20 19:35 38.32051 -102.25678 42981 ft 455 kts 251°
2026-04-20 19:36 38.29900 -102.33232 42989 ft 456 kts 251°
2026-04-20 19:36 38.27733 -102.40822 42983 ft 456 kts 251°
2026-04-20 19:37 38.25554 -102.48434 43018 ft 457 kts 251°
2026-04-20 19:37 38.23370 -102.56039 43036 ft 457 kts 251°
2026-04-20 19:38 38.21185 -102.63627 43051 ft 457 kts 251°
2026-04-20 19:38 38.18912 -102.71126 43060 ft 459 kts 248°
2026-04-20 19:39 38.16376 -102.78566 43058 ft 459 kts 248°
2026-04-20 19:39 38.13854 -102.86027 43049 ft 459 kts 248°
2026-04-20 19:40 38.11724 -102.92267 43036 ft 459 kts 248°
2026-04-20 19:40 38.09207 -102.99659 43018 ft 459 kts 248°
2026-04-20 19:41 38.06656 -103.07111 42997 ft 459 kts 248°
2026-04-20 19:41 38.04107 -103.14552 43004 ft 460 kts 248°
2026-04-20 19:42 38.01544 -103.22004 43033 ft 461 kts 247°
2026-04-20 19:42 37.98978 -103.29454 43054 ft 461 kts 247°
2026-04-20 19:43 37.95987 -103.38109 42973 ft 461 kts 247°
2026-04-20 19:43 37.93846 -103.44290 42973 ft 461 kts 247°
2026-04-20 19:44 37.91266 -103.51722 42971 ft 462 kts 247°
2026-04-20 19:44 37.88672 -103.59173 42970 ft 462 kts 247°
2026-04-20 19:45 37.86079 -103.66606 42965 ft 462 kts 247°
2026-04-20 19:45 37.83472 -103.74058 42966 ft 463 kts 247°
2026-04-20 19:46 37.80859 -103.81507 42960 ft 463 kts 247°
2026-04-20 19:46 37.78243 -103.88951 42957 ft 464 kts 246°
2026-04-20 19:47 37.75631 -103.96359 42957 ft 464 kts 246°
2026-04-20 19:47 37.73004 -104.03796 42956 ft 463 kts 246°
2026-04-20 19:48 37.70368 -104.11238 42960 ft 464 kts 246°
2026-04-20 19:48 37.67729 -104.18670 42959 ft 464 kts 246°
2026-04-20 19:49 37.65081 -104.26109 42958 ft 465 kts 246°
2026-04-20 19:49 37.62428 -104.33544 42959 ft 465 kts 246°
2026-04-20 19:50 37.59768 -104.40981 42967 ft 465 kts 246°
2026-04-20 19:50 37.57104 -104.48407 42966 ft 465 kts 246°
2026-04-20 19:51 37.54454 -104.55780 42977 ft 465 kts 246°
2026-04-20 19:51 37.51780 -104.63199 42978 ft 467 kts 246°
2026-04-20 19:52 37.49089 -104.70648 42997 ft 467 kts 246°
2026-04-20 19:52 37.46395 -104.78087 42997 ft 467 kts 246°
2026-04-20 19:53 37.43700 -104.85511 42991 ft 467 kts 246°
2026-04-20 19:53 37.40998 -104.92936 43021 ft 466 kts 245°
2026-04-20 19:54 37.38282 -105.00381 43023 ft 469 kts 245°
2026-04-20 19:54 37.35563 -105.07814 43059 ft 468 kts 245°
2026-04-20 19:55 37.32856 -105.15199 43054 ft 468 kts 246°
2026-04-20 19:55 37.30133 -105.22610 43080 ft 468 kts 245°
2026-04-20 19:56 37.27400 -105.30028 43082 ft 468 kts 245°
2026-04-20 19:56 37.24661 -105.37447 43098 ft 469 kts 245°
2026-04-20 19:57 37.21928 -105.44829 43101 ft 468 kts 245°
2026-04-20 19:57 37.19177 -105.52245 43104 ft 468 kts 245°
2026-04-20 19:58 37.16419 -105.59659 43102 ft 469 kts 245°
2026-04-20 19:58 37.13659 -105.67062 43098 ft 470 kts 245°
2026-04-20 19:59 37.10884 -105.74486 43096 ft 470 kts 245°
2026-04-20 19:59 37.08104 -105.81909 43095 ft 470 kts 245°
2026-04-20 20:00 37.05323 -105.89313 43096 ft 470 kts 245°
2026-04-20 20:00 37.02533 -105.96725 43099 ft 470 kts 245°
2026-04-20 20:01 36.99753 -106.04093 43104 ft 471 kts 245°
2026-04-20 20:01 36.96946 -106.11514 43118 ft 471 kts 245°
2026-04-20 20:02 36.94138 -106.18921 43113 ft 471 kts 244°
2026-04-20 20:02 36.91325 -106.26322 43124 ft 471 kts 244°
2026-04-20 20:03 36.88508 -106.33718 43130 ft 471 kts 244°
2026-04-20 20:03 36.85685 -106.41112 43134 ft 472 kts 244°
2026-04-20 20:04 36.82871 -106.48464 43128 ft 472 kts 244°
2026-04-20 20:04 36.80039 -106.55847 43115 ft 471 kts 244°
2026-04-20 20:05 36.77202 -106.63224 43084 ft 472 kts 244°
2026-04-20 20:05 36.74355 -106.70613 43110 ft 472 kts 244°
2026-04-20 20:06 36.71503 -106.77992 43097 ft 473 kts 244°
2026-04-20 20:06 36.68649 -106.85365 43092 ft 472 kts 244°
2026-04-20 20:07 36.65802 -106.92699 43093 ft 473 kts 244°
2026-04-20 20:07 36.62937 -107.00065 43094 ft 473 kts 244°
2026-04-20 20:08 36.60065 -107.07429 43101 ft 473 kts 244°
2026-04-20 20:08 36.57184 -107.14800 43100 ft 473 kts 244°
2026-04-20 20:09 36.54298 -107.22167 43094 ft 473 kts 244°
2026-04-20 20:09 36.51407 -107.29530 43095 ft 474 kts 244°
2026-04-20 20:10 36.48511 -107.36886 43094 ft 473 kts 244°
2026-04-20 20:10 36.45612 -107.44240 43093 ft 475 kts 244°
2026-04-20 20:11 36.42701 -107.51597 43084 ft 475 kts 244°
2026-04-20 20:11 36.39782 -107.58964 43087 ft 475 kts 244°
2026-04-20 20:12 36.36865 -107.66308 43073 ft 474 kts 243°
2026-04-20 20:12 36.33944 -107.73645 43074 ft 474 kts 243°
2026-04-20 20:13 36.29559 -107.84627 43067 ft 475 kts 243°
2026-04-20 20:13 36.26621 -107.91965 43047 ft 475 kts 243°
2026-04-20 20:14 36.23670 -107.99318 43036 ft 476 kts 243°
2026-04-20 20:14 36.20721 -108.06651 43016 ft 476 kts 243°
2026-04-20 20:15 36.17756 -108.14004 43017 ft 477 kts 243°
2026-04-20 20:15 36.14787 -108.21353 42996 ft 477 kts 243°
2026-04-20 20:16 36.11815 -108.28691 42994 ft 477 kts 243°
2026-04-20 20:16 36.08835 -108.36032 42982 ft 477 kts 243°
2026-04-20 20:17 36.05854 -108.43360 42978 ft 477 kts 243°
2026-04-20 20:17 36.02859 -108.50707 42966 ft 478 kts 243°
2026-04-20 20:18 35.99879 -108.57998 42938 ft 478 kts 243°
2026-04-20 20:18 35.96881 -108.65320 42937 ft 478 kts 243°
2026-04-20 20:19 35.93877 -108.72637 42927 ft 478 kts 243°
2026-04-20 20:19 35.90869 -108.79949 42921 ft 479 kts 243°
2026-04-20 20:20 35.87847 -108.87278 42924 ft 479 kts 243°
2026-04-20 20:20 35.84822 -108.94596 43090 ft 479 kts 243°
2026-04-20 20:21 35.81793 -109.01912 43151 ft 479 kts 243°
2026-04-20 20:21 35.78759 -109.09220 43190 ft 479 kts 243°
2026-04-20 20:22 35.75720 -109.16525 43199 ft 480 kts 243°
2026-04-20 20:22 35.72671 -109.23839 43166 ft 480 kts 243°
2026-04-20 20:23 35.69638 -109.31097 43109 ft 480 kts 243°
2026-04-20 20:23 35.66578 -109.38404 43042 ft 480 kts 243°
2026-04-20 20:24 35.63509 -109.45716 42970 ft 480 kts 243°
2026-04-20 20:24 35.60452 -109.52984 42919 ft 480 kts 243°
2026-04-20 20:25 35.57380 -109.60271 42919 ft 480 kts 243°
2026-04-20 20:25 35.54823 -109.66324 42921 ft 480 kts 243°
2026-04-20 20:26 35.51743 -109.73600 42921 ft 480 kts 243°
2026-04-20 20:26 35.48658 -109.80873 42930 ft 480 kts 243°
2026-04-20 20:27 35.45560 -109.88162 42928 ft 481 kts 243°
2026-04-20 20:27 35.42601 -109.95527 42915 ft 481 kts 249°
2026-04-20 20:28 35.41249 -110.03472 42928 ft 481 kts 265°
2026-04-20 20:28 35.40952 -110.11681 42952 ft 482 kts 265°
2026-04-20 20:29 35.40186 -110.19860 42945 ft 483 kts 259°
2026-04-20 20:29 35.38572 -110.27849 42955 ft 482 kts 252°
2026-04-20 20:30 35.36076 -110.35416 42960 ft 483 kts 244°
2026-04-20 20:30 35.32507 -110.42377 42954 ft 485 kts 232°
2026-04-20 20:31 35.27899 -110.48426 42961 ft 486 kts 227°
2026-04-20 20:31 35.23429 -110.54640 42947 ft 485 kts 233°
2026-04-20 20:32 35.21360 -110.57857 42602 ft 475 kts 232°
2026-04-20 20:32 35.19238 -110.60884 42005 ft 462 kts 230°
2026-04-20 20:32 35.17118 -110.63769 41417 ft 450 kts 230°
2026-04-20 20:32 35.15106 -110.66635 40996 ft 441 kts 232°
2026-04-20 20:33 35.13157 -110.69516 40449 ft 439 kts 232°
2026-04-20 20:33 35.11166 -110.72390 39892 ft 447 kts 231°
2026-04-20 20:33 35.09106 -110.75286 39303 ft 456 kts 231°
2026-04-20 20:33 35.07046 -110.78203 38680 ft 462 kts 231°
2026-04-20 20:34 35.04957 -110.81208 38017 ft 464 kts 232°
2026-04-20 20:34 35.02849 -110.84231 37414 ft 470 kts 232°
2026-04-20 20:34 35.00711 -110.87263 36760 ft 472 kts 231°
2026-04-20 20:34 34.98563 -110.90305 36123 ft 474 kts 232°
2026-04-20 20:35 34.96417 -110.93363 35474 ft 476 kts 232°
2026-04-20 20:35 34.94255 -110.96443 34826 ft 479 kts 232°
2026-04-20 20:35 34.92079 -110.99531 34177 ft 481 kts 232°
2026-04-20 20:35 34.89893 -111.02623 33552 ft 482 kts 232°
2026-04-20 20:36 34.87712 -111.05712 32896 ft 480 kts 232°
2026-04-20 20:36 34.85539 -111.08790 32262 ft 479 kts 232°
2026-04-20 20:36 34.83365 -111.11866 31622 ft 478 kts 231°
2026-04-20 20:36 34.81197 -111.14927 30992 ft 477 kts 232°
2026-04-20 20:37 34.79031 -111.17982 30368 ft 477 kts 232°
2026-04-20 20:37 34.76883 -111.21013 29701 ft 469 kts 232°
2026-04-20 20:37 34.74759 -111.24005 29087 ft 464 kts 232°
2026-04-20 20:37 34.72660 -111.26961 28487 ft 460 kts 231°
2026-04-20 20:38 34.70608 -111.29848 27881 ft 455 kts 231°
2026-04-20 20:38 34.68548 -111.32744 27285 ft 450 kts 231°
2026-04-20 20:38 34.66509 -111.35607 26700 ft 446 kts 231°
2026-04-20 20:38 34.64491 -111.38440 26113 ft 442 kts 231°
2026-04-20 20:39 34.62486 -111.41250 25516 ft 438 kts 231°
2026-04-20 20:39 34.60503 -111.44030 24938 ft 433 kts 231°
2026-04-20 20:39 34.58538 -111.46781 24370 ft 429 kts 231°
2026-04-20 20:39 34.56589 -111.49507 23808 ft 425 kts 231°
2026-04-20 20:40 34.54666 -111.52195 23203 ft 420 kts 231°
2026-04-20 20:40 34.52756 -111.54863 22640 ft 417 kts 231°
2026-04-20 20:40 34.50861 -111.57507 22092 ft 413 kts 231°
2026-04-20 20:40 34.48981 -111.60130 21553 ft 411 kts 231°
2026-04-20 20:41 34.47113 -111.62733 21006 ft 408 kts 230°
2026-04-20 20:41 34.45170 -111.65227 20481 ft 408 kts 223°
2026-04-20 20:41 34.42778 -111.66959 19917 ft 407 kts 204°
2026-04-20 20:41 34.40069 -111.67937 19453 ft 406 kts 195°
2026-04-20 20:42 34.37336 -111.68747 18888 ft 401 kts 194°
2026-04-20 20:42 34.34626 -111.69541 18398 ft 399 kts 194°
2026-04-20 20:42 34.31954 -111.70358 17792 ft 394 kts 194°
2026-04-20 20:42 34.29307 -111.71179 17270 ft 391 kts 194°
2026-04-20 20:43 34.26678 -111.71976 16756 ft 388 kts 193°
2026-04-20 20:43 34.24070 -111.72758 16240 ft 383 kts 193°
2026-04-20 20:43 34.21486 -111.73541 15736 ft 380 kts 193°
2026-04-20 20:43 34.18933 -111.74320 15235 ft 377 kts 193°
2026-04-20 20:44 34.16396 -111.75090 14737 ft 374 kts 192°
2026-04-20 20:44 34.13921 -111.75835 14258 ft 370 kts 192°
2026-04-20 20:44 34.11429 -111.76588 13764 ft 367 kts 191°
2026-04-20 20:44 34.08964 -111.77334 13254 ft 364 kts 192°
2026-04-20 20:45 34.06515 -111.78077 12771 ft 360 kts 192°
2026-04-20 20:45 34.04098 -111.78809 12291 ft 358 kts 192°
2026-04-20 20:45 34.01689 -111.79529 11829 ft 354 kts 192°
2026-04-20 20:45 33.99320 -111.80239 11350 ft 349 kts 192°
2026-04-20 20:46 33.97010 -111.80938 10879 ft 331 kts 192°
2026-04-20 20:46 33.94853 -111.81589 10387 ft 310 kts 192°
2026-04-20 20:46 33.92808 -111.82206 9912 ft 295 kts 192°
2026-04-20 20:46 33.90854 -111.82793 9427 ft 284 kts 192°
2026-04-20 20:47 33.88962 -111.83360 8923 ft 276 kts 192°
2026-04-20 20:47 33.87123 -111.83913 8431 ft 268 kts 193°
2026-04-20 20:47 33.85354 -111.84352 7925 ft 259 kts 184°
2026-04-20 20:47 33.83570 -111.84353 7432 ft 254 kts 179°
2026-04-20 20:48 33.81814 -111.84318 6976 ft 250 kts 180°
2026-04-20 20:48 33.80086 -111.84314 6525 ft 244 kts 182°
2026-04-20 20:48 33.78433 -111.84315 6093 ft 231 kts 181°
2026-04-20 20:48 33.76868 -111.84309 5677 ft 218 kts 181°
2026-04-20 20:49 33.75403 -111.84300 5297 ft 203 kts 180°
2026-04-20 20:49 33.74033 -111.84295 5084 ft 189 kts 181°
2026-04-20 20:49 33.72800 -111.84289 5083 ft 166 kts 181°
2026-04-20 20:49 33.71764 -111.84405 4987 ft 136 kts 198°
2026-04-20 20:50 33.70960 -111.84912 4858 ft 126 kts 219°
2026-04-20 20:50 33.70383 -111.85673 4885 ft 122 kts 236°
2026-04-20 20:50 33.70032 -111.86648 4848 ft 133 kts 254°
2026-04-20 20:50 33.69956 -111.87710 4711 ft 125 kts 264°
2026-04-20 20:51 33.69893 -111.88733 4558 ft 123 kts 262°
2026-04-20 20:51 33.69828 -111.89776 4381 ft 126 kts 264°
2026-04-20 20:51 33.69767 -111.90823 4205 ft 124 kts 263°
2026-04-20 20:51 33.69708 -111.91852 4023 ft 122 kts 263°
2026-04-20 20:52 33.69652 -111.92848 3883 ft 118 kts 262°
2026-04-20 20:52 33.69591 -111.93869 3710 ft 126 kts 262°
2026-04-20 20:52 33.69532 -111.94914 3536 ft 122 kts 264°
2026-04-20 20:52 33.69476 -111.95934 3374 ft 127 kts 263°
2026-04-20 20:53 33.69415 -111.96985 3198 ft 126 kts 263°
2026-04-20 20:53 33.69361 -111.98022 3024 ft 124 kts 264°
2026-04-20 20:53 33.69304 -111.99063 2901 ft 124 kts 264°
2026-04-20 20:53 33.69257 -112.00106 2766 ft 126 kts 263°
2026-04-20 20:54 33.69204 -112.01156 2593 ft 128 kts 264°
2026-04-20 20:54 33.69125 -112.02222 2455 ft 131 kts 264°
2026-04-20 20:54 33.69038 -112.03322 2270 ft 133 kts 264°
2026-04-20 20:54 33.68987 -112.04433 2067 ft 135 kts 265°
2026-04-20 20:55 33.68921 -112.05564 1829 ft 134 kts 263°
2026-04-20 20:55 33.68860 -112.06669 1628 ft 135 kts 263°
2026-04-20 20:55 33.68796 -112.07785 1479 ft 128 kts 264°
2026-04-20 20:55 33.68738 -112.08735 1461 ft 94 kts 265°
2026-04-20 20:56 33.68709 -112.09225 1459 ft 35 kts 264°
2026-04-20 20:56 33.68696 -112.09443 1458 ft 23 kts 265°
2026-04-20 20:56 33.68668 -112.09543 1455 ft 8 kts 205°
2026-04-20 20:56 33.68616 -112.09536 1454 ft 7 kts 137°
2026-04-20 20:57 33.68610 -112.09491 1454 ft 4 kts 86°
2026-04-20 20:57 33.68612 -112.09447 1456 ft 6 kts 86°
2026-04-20 20:57 33.68616 -112.09387 1456 ft 9 kts 86°
2026-04-20 20:57 33.68621 -112.09301 1458 ft 12 kts 85°
2026-04-20 20:58 33.68628 -112.09181 1458 ft 15 kts 85°
2026-04-20 20:58 33.68635 -112.09059 1459 ft 14 kts 86°
2026-04-20 20:58 33.68642 -112.08948 1462 ft 13 kts 86°
2026-04-20 20:58 33.68648 -112.08833 1463 ft 15 kts 86°
2026-04-20 20:59 33.68655 -112.08709 1463 ft 15 kts 86°
2026-04-20 20:59 33.68662 -112.08586 1463 ft 14 kts 86°
2026-04-20 20:59 33.68641 -112.08508 1465 ft 8 kts 160°
2026-04-20 20:59 33.68594 -112.08496 1465 ft 5 kts 145°
2026-04-20 21:00 33.68584 -112.08467 1466 ft 4 kts 98°
2026-04-20 21:00 33.68584 -112.08409 1468 ft 9 kts 86°
2026-04-20 21:00 33.68611 -112.08356 1465 ft 8 kts 18°
2026-04-20 21:00 33.68629 -112.08314 1468 ft 5 kts 130°
2026-04-20 21:01 33.68609 -112.08308 1477 ft 2 kts 174°
2026-04-20 21:01 33.68606 -112.08307 1477 ft 0 kts 174°